User: anonymous   Login
Location: Unspecified
(0.0000°N, 0.0000°E)
Time: 12:12:07
(UTC+00:00)
Language:

Transit 2A Rocket - Orbit

View from above orbital plane
View from above orbital plane
View from above satellite
View from above satellite

Ground track
Ground track

The orbit data is extracted from the following two-line orbital elements,

1 00047U 60007C   17345.72351623 -.00000015  00000-0  21737-4 0  9994
2 00047  66.6664  91.3095 0235174 255.8034 101.6843 14.41957959  2653
Epoch (UTC): 11 December 2017 17:21:51
Eccentricity: 0.0235174
inclination: 66.6664°
perigee height: 584 km
apogee height: 920 km
right ascension of ascending node: 91.3095°
argument of perigee: 255.8034°
revolutions per day: 14.41957959
mean anomaly at epoch: 101.6843°
orbit number at epoch: 265

The dashed part of the orbit path shows where the satellite is in the earth's shadow,  

DLR